TimeCST,TemperatureF,Dew PointF,Humidity,Sea Level PressureIn,VisibilityMPH,Wind Direction,Wind SpeedMPH,Gust SpeedMPH,PrecipitationIn,Events,Conditions,WindDirDegrees,DateUTC
12:15 AM,18.7,14.5,84,29.98,10.0,SW,4.6,-,N/A,,Clear,220,2013-02-24 06:15:00
12:35 AM,18.5,14.7,85,29.97,10.0,SW,4.6,-,N/A,,Clear,230,2013-02-24 06:35:00
12:55 AM,18.5,14.9,86,29.98,10.0,WSW,3.5,-,N/A,,Clear,240,2013-02-24 06:55:00
1:15 AM,16.9,13.1,85,29.99,10.0,SW,4.6,-,N/A,,Clear,230,2013-02-24 07:15:00
1:35 AM,16.3,12.9,86,29.99,10.0,WSW,4.6,-,N/A,,Clear,240,2013-02-24 07:35:00
1:55 AM,16.2,12.7,86,29.99,10.0,SW,4.6,-,N/A,,Clear,230,2013-02-24 07:55:00
2:15 AM,14.9,11.5,86,29.99,10.0,SW,5.8,-,N/A,,Clear,230,2013-02-24 08:15:00
2:35 AM,15.1,11.8,87,29.99,10.0,SW,4.6,-,N/A,,Clear,230,2013-02-24 08:35:00
2:55 AM,15.4,12.2,87,29.99,10.0,SW,3.5,-,N/A,,Clear,230,2013-02-24 08:55:00
3:15 AM,13.6,10.6,88,29.99,10.0,Calm,Calm,-,N/A,,Clear,0,2013-02-24 09:15:00
3:35 AM,11.1,8.2,88,29.99,10.0,Calm,Calm,-,N/A,,Clear,0,2013-02-24 09:35:00
3:55 AM,12.6,9.7,88,30.00,7.0,SSW,4.6,-,N/A,,Clear,210,2013-02-24 09:55:00
4:15 AM,7.9,4.8,87,30.01,10.0,SW,3.5,-,N/A,,Clear,220,2013-02-24 10:15:00
4:35 AM,11.1,8.4,89,30.01,10.0,Calm,Calm,-,N/A,,Clear,0,2013-02-24 10:35:00
4:55 AM,11.1,8.2,88,30.01,7.0,Calm,Calm,-,N/A,,Clear,0,2013-02-24 10:55:00
5:15 AM,8.6,5.2,86,30.02,7.0,SSW,4.6,-,N/A,,Clear,200,2013-02-24 11:15:00
5:35 AM,10.4,7.5,88,30.04,10.0,SSW,3.5,-,N/A,,Clear,210,2013-02-24 11:35:00
5:55 AM,8.8,5.5,87,30.05,7.0,SW,3.5,-,N/A,,Clear,220,2013-02-24 11:55:00
6:15 AM,11.1,8.2,88,30.05,10.0,Calm,Calm,-,N/A,,Clear,0,2013-02-24 12:15:00
6:35 AM,9.5,6.3,87,30.05,10.0,Calm,Calm,-,N/A,,Clear,0,2013-02-24 12:35:00
6:55 AM,12.6,9.9,89,30.05,7.0,Calm,Calm,-,N/A,,Clear,0,2013-02-24 12:55:00
7:15 AM,7.2,3.7,86,30.06,10.0,Calm,Calm,-,N/A,,Clear,0,2013-02-24 13:15:00
7:35 AM,7.2,3.7,86,30.07,7.0,SSW,4.6,-,N/A,,Clear,200,2013-02-24 13:35:00
7:55 AM,12.9,10.2,89,30.08,7.0,SW,3.5,-,N/A,,Clear,220,2013-02-24 13:55:00
8:15 AM,14.9,11.8,88,30.09,10.0,SW,3.5,-,N/A,,Clear,220,2013-02-24 14:15:00
8:35 AM,19.4,15.8,86,30.09,10.0,Calm,Calm,-,N/A,,Clear,0,2013-02-24 14:35:00
8:55 AM,18.9,14.5,83,30.10,10.0,Calm,Calm,-,N/A,,Clear,0,2013-02-24 14:55:00
9:15 AM,18.5,14.5,85,30.11,10.0,Calm,Calm,-,N/A,,Clear,0,2013-02-24 15:15:00
9:35 AM,21.0,15.8,80,30.11,10.0,Calm,Calm,-,N/A,,Clear,0,2013-02-24 15:35:00
9:55 AM,23.5,16.3,74,30.11,10.0,Calm,Calm,-,N/A,,Clear,0,2013-02-24 15:55:00
10:15 AM,23.7,16.2,73,30.12,10.0,Calm,Calm,-,N/A,,Clear,0,2013-02-24 16:15:00
10:35 AM,24.3,16.9,73,30.11,10.0,Calm,Calm,-,N/A,,Clear,0,2013-02-24 16:35:00
10:55 AM,24.8,17.1,72,30.12,10.0,Calm,Calm,-,N/A,,Clear,0,2013-02-24 16:55:00
11:15 AM,24.8,16.7,71,30.12,10.0,Calm,Calm,-,N/A,,Clear,0,2013-02-24 17:15:00
11:35 AM,27.0,17.8,68,30.12,10.0,Calm,Calm,-,N/A,,Clear,0,2013-02-24 17:35:00
11:55 AM,26.4,18.5,72,30.12,10.0,Calm,Calm,-,N/A,,Clear,0,2013-02-24 17:55:00
12:15 PM,27.3,19.8,73,30.11,10.0,Calm,Calm,-,N/A,,Clear,0,2013-02-24 18:15:00
12:35 PM,28.8,20.3,71,30.11,10.0,Calm,Calm,-,N/A,,Clear,0,2013-02-24 18:35:00
12:55 PM,28.8,20.3,71,30.12,10.0,Calm,Calm,-,N/A,,Clear,0,2013-02-24 18:55:00
1:15 PM,28.8,19.8,69,30.12,10.0,Calm,Calm,-,N/A,,Clear,0,2013-02-24 19:15:00
1:35 PM,29.3,19.8,68,30.11,10.0,Calm,Calm,-,N/A,,Clear,0,2013-02-24 19:35:00
1:55 PM,31.5,21.0,65,30.11,10.0,Calm,Calm,-,N/A,,Clear,0,2013-02-24 19:55:00
2:15 PM,31.5,21.6,67,30.11,10.0,Calm,Calm,-,N/A,,Clear,0,2013-02-24 20:15:00
2:35 PM,31.5,21.4,66,30.10,10.0,Calm,Calm,-,N/A,,Clear,0,2013-02-24 20:35:00
2:55 PM,31.5,21.9,68,30.11,10.0,Calm,Calm,-,N/A,,Clear,0,2013-02-24 20:55:00
3:15 PM,33.8,23.4,66,30.11,10.0,Calm,Calm,-,N/A,,Clear,0,2013-02-24 21:15:00
3:35 PM,31.5,21.4,66,30.11,10.0,Calm,Calm,-,N/A,,Clear,0,2013-02-24 21:35:00
3:55 PM,31.5,21.7,67,30.11,10.0,Calm,Calm,-,N/A,,Clear,0,2013-02-24 21:55:00
4:15 PM,31.5,21.9,68,30.11,10.0,Calm,Calm,-,N/A,,Clear,0,2013-02-24 22:15:00
4:35 PM,31.5,22.3,69,30.11,10.0,Calm,Calm,-,N/A,,Clear,0,2013-02-24 22:35:00
4:55 PM,31.5,22.1,68,30.10,10.0,Calm,Calm,-,N/A,,Clear,0,2013-02-24 22:55:00
5:15 PM,31.1,22.3,70,30.10,10.0,Calm,Calm,-,N/A,,Clear,0,2013-02-24 23:15:00
5:35 PM,28.6,20.7,72,30.11,10.0,Calm,Calm,-,N/A,,Clear,0,2013-02-24 23:35:00
5:55 PM,26.2,20.1,78,30.11,10.0,Calm,Calm,-,N/A,,Clear,0,2013-02-24 23:55:00
6:15 PM,24.1,19.0,81,30.11,10.0,Calm,Calm,-,N/A,,Clear,0,2013-02-25 00:15:00
6:35 PM,23.7,18.9,82,30.12,10.0,East,3.5,-,N/A,,Clear,80,2013-02-25 00:35:00
6:55 PM,21.4,17.2,84,30.12,10.0,Calm,Calm,-,N/A,,Clear,0,2013-02-25 00:55:00
7:15 PM,22.8,18.3,83,30.12,10.0,Calm,Calm,-,N/A,,Clear,0,2013-02-25 01:15:00
7:35 PM,21.2,17.1,84,30.12,10.0,Calm,Calm,-,N/A,,Clear,0,2013-02-25 01:35:00
7:55 PM,21.2,16.7,83,30.13,10.0,Calm,Calm,-,N/A,,Clear,0,2013-02-25 01:55:00
8:15 PM,20.8,16.2,82,30.14,10.0,Calm,Calm,-,N/A,,Clear,0,2013-02-25 02:15:00
8:35 PM,19.8,15.6,84,30.14,10.0,Calm,Calm,-,N/A,,Clear,0,2013-02-25 02:35:00
8:55 PM,18.5,14.9,86,30.14,10.0,Calm,Calm,-,N/A,,Clear,0,2013-02-25 02:55:00
9:15 PM,20.7,16.7,85,30.13,10.0,Calm,Calm,-,N/A,,Clear,0,2013-02-25 03:15:00
9:35 PM,18.7,14.9,85,30.13,10.0,Calm,Calm,-,N/A,,Clear,0,2013-02-25 03:35:00
9:55 PM,18.7,15.3,87,30.13,10.0,Calm,Calm,-,N/A,,Clear,0,2013-02-25 03:55:00
10:15 PM,19.2,16.0,87,30.13,10.0,Calm,Calm,-,N/A,,Clear,0,2013-02-25 04:15:00
10:35 PM,18.7,15.6,88,30.13,10.0,Calm,Calm,-,N/A,,Clear,0,2013-02-25 04:35:00
10:55 PM,18.5,15.6,89,30.13,10.0,Calm,Calm,-,N/A,,Clear,0,2013-02-25 04:55:00
11:15 PM,18.5,14.9,86,30.13,10.0,Calm,Calm,-,N/A,,Clear,0,2013-02-25 05:15:00
11:35 PM,18.5,15.6,89,30.14,7.0,Calm,Calm,-,N/A,,Clear,0,2013-02-25 05:35:00
11:55 PM,16.2,13.1,88,30.14,7.0,Calm,Calm,-,N/A,,Clear,0,2013-02-25 05:55:00